Weather History for Hill City, KS

Change the Weather History Date:

Wednesday, February 13, 2013

  Actual Average Record
Temperature  
Mean Temperature 40 °F 32 °F  
Max Temperature 57 °F 45 °F 75 °F (1954)
Min Temperature 23 °F 19 °F 1 °F (1986)
Degree Days  
Heating Degree Days 25    
Moisture  
Dew Point 19 °F    
Average Humidity 49    
Maximum Humidity 75    
Minimum Humidity 24    
Precipitation  
Precipitation 0.00 in 0.02 in 0.03 in (1997)
Month to date precipitation 0.05 0.24  
Year to date precipitation 0.14 0.69  
Sea Level Pressure  
Sea Level Pressure 29.96 in    
Wind  
Wind Speed 9 mph (WNW)    
Max Wind Speed 18 mph    
Max Gust Speed 28 mph    
Visibility 10 miles    
Events      
T = Trace of Precipitation, MM = Missing Value Source: NWS Daily Summary

Daily Weather History Graph

Daily Weather History Graph

Search for Another Location

Airport:

Trip Planner

Search our weather history database for the weather conditions in past years. The results will help you decide how hot, cold, wet, or windy it might be!

Date:

Astronomy

Feb. 13, 2013 Rise Set
Actual Time 7:33 AM CST 6:14 PM CST
Civil Twilight 7:05 AM CST 6:41 PM CST
Nautical Twilight 6:34 AM CST 7:13 PM CST
Astronomical Twilight 6:03 AM CST 7:44 PM CST
Moon 9:05 AM CST (2/13) 10:17 PM CST (2/13)
Length of Visible Light 11h 36m
Length of Day
10h 40m
Waxing Crescent, 14% of the Moon is Illuminated
Feb 13
Waxing Crescent
Feb 17
First Quarter
Feb 25
Full
Mar 4
Last Quarter
Mar 11
New

Hourly Weather History & Observations

Time (CST) Temp. Windchill Dew Point Humidity Pressure Visibility Wind Dir Wind Speed Gust Speed Precip Events Conditions
12:53 AM 25.0 °F 17.1 °F 16.0 °F 69% 30.03 in 10.0 mi West 6.9 mph - N/A   Clear
2:53 AM 23.0 °F 14.7 °F 16.0 °F 74% 30.03 in 10.0 mi WSW 6.9 mph - N/A   Clear
3:53 AM 23.0 °F 15.8 °F 16.0 °F 74% 30.02 in 10.0 mi West 5.8 mph - N/A   Clear
4:53 AM 26.1 °F 18.4 °F 18.0 °F 71% 29.99 in 10.0 mi West 6.9 mph - N/A   Clear
5:53 AM 25.0 °F 18.1 °F 17.1 °F 72% 30.00 in 10.0 mi West 5.8 mph - N/A   Clear
6:53 AM 24.1 °F 15.2 °F 17.1 °F 75% 30.01 in 10.0 mi West 8.1 mph - N/A   Clear
7:53 AM 25.0 °F 20.7 °F 17.1 °F 72% 30.01 in 10.0 mi WSW 3.5 mph - N/A   Clear
8:53 AM 33.1 °F 25.5 °F 19.9 °F 59% 30.01 in 10.0 mi West 9.2 mph - N/A   Clear
9:53 AM 41.0 °F 32.8 °F 19.9 °F 43% 29.99 in 10.0 mi WNW 16.1 mph - N/A   Clear
10:53 AM 46.9 °F - 19.9 °F 34% 29.98 in 10.0 mi NW 16.1 mph 27.6 mph N/A   Clear
11:53 AM 50.0 °F - 19.0 °F 29% 29.96 in 10.0 mi WNW 15.0 mph 21.9 mph N/A   Clear
12:53 PM 53.1 °F - 18.0 °F 25% 29.93 in 10.0 mi WNW 12.7 mph 20.7 mph N/A   Clear
1:53 PM 54.0 °F - 18.0 °F 24% 29.90 in 10.0 mi WNW 11.5 mph 21.9 mph N/A   Clear
2:53 PM 55.9 °F - 19.0 °F 24% 29.88 in 10.0 mi NW 17.3 mph 24.2 mph N/A   Clear
3:53 PM 57.0 °F - 19.9 °F 24% 29.87 in 10.0 mi NW 12.7 mph - N/A   Clear
4:53 PM 55.0 °F - 21.0 °F 27% 29.88 in 10.0 mi NW 18.4 mph 21.9 mph N/A   Clear
5:53 PM 52.0 °F - 21.9 °F 31% 29.89 in 10.0 mi NW 9.2 mph - N/A   Scattered Clouds
6:53 PM 45.0 °F 40.6 °F 21.0 °F 39% 29.91 in 10.0 mi NW 8.1 mph - N/A   Clear
7:53 PM 45.0 °F 41.8 °F 21.9 °F 40% 29.92 in 10.0 mi WNW 5.8 mph - N/A   Overcast
8:53 PM 37.9 °F 35.5 °F 21.9 °F 53% 29.92 in 10.0 mi WNW 3.5 mph - N/A   Scattered Clouds
9:53 PM 37.0 °F 31.6 °F 23.0 °F 57% 29.93 in 10.0 mi West 6.9 mph - N/A   Mostly Cloudy
10:53 PM 36.0 °F 29.0 °F 21.9 °F 57% 29.95 in 10.0 mi West 9.2 mph - N/A   Clear
11:53 PM 37.9 °F 30.9 °F 24.1 °F 57% 29.97 in 10.0 mi WNW 10.4 mph - N/A   Partly Cloudy